Regional Weather Roundup
Issued by NWS Wakefield, VA

Home | Current Version | Previous Version | Graphics & Text | Print | Product List | Glossary On
Versions: 1 2 3 4 5 6 7 8 9 10 11 12 13 14 15 16 17 18 19 20 21 22 23 24 25 26 27 28 29 30 31 32 33 34 35 36 37 38 39 40 41 42 43 44 45 46 47 48 49 50
000
ASUS41 KAKQ 150715
RWRAKQ

REGIONAL WEATHER ROUNDUP
NATIONAL WEATHER SERVICE WAKEFIELD VA
200 AM EST FRI DEC 15 2017

Note: "fair" indicates few or no clouds below 12,000 feet with no
significant weather and/or obstructions to visibility. * = Denotes
station may not report precipitation (e.g., rain,snow,etc.),
thunder or fog.

VAZ042-051-052>054-056-150800-
NORTHERN VIRGINIA

CITY           SKY/WX    TMP DP  RH WIND       PRES   REMARKS
WASH NATIONAL  CLOUDY    31  11  43 E9        30.13S
DULLES         CLOUDY    26  14  60 NE6       30.11R
FORT BELVOIR   CLOUDY    29  11  46 CALM      30.13R
QUANTICO       CLOUDY    33  17  51 E8        30.14R
FREDERICKSBRG* MOCLDY    31  17  55 N3        30.12R
STAFFORD*      CLOUDY    29  20  70 CALM      30.16R
WARRENTON      CLOUDY    26  20  77 CALM      30.11R
CULPEPER*      CLOUDY    27  18  68 CALM      30.12S
MANASSAS*      PTCLDY    28  15  58 N3        30.12R
LEESBURG*      CLOUDY    28  18  64 CALM      30.12S
WINCHESTER     CLOUDY    23  12  63 CALM      30.08R
FRONT ROYAL*   CLOUDY    27  12  54 MISG      30.06F
LURAY*         MOSUNNY   28  18  64 NE5       30.05S
$$

VAZ048-049-060>072-079>083-150800-
CENTRAL AND SOUTH CENTRAL VIRGINIA

CITY           SKY/WX    TMP DP  RH WIND       PRES   REMARKS
RICHMOND       CLOUDY    34  21  59 NE5       30.10R
CHESTERFIELD*  NOT AVBL
PETERSBURG*    PTCLDY    32  18  55 NE6       30.10R
HANOVER        CLOUDY    31  19  61 CALM      30.12R
TAPPAHANNOCK*  CLOUDY    33  18  54 NE6       30.11F
QUINTON*       FAIR      32  18  57 NE3       30.10R
CHARLOTTSVILLE CLOUDY    30  18  60 NE3       30.09R
GORDONSVILLE*  CLOUDY    27  20  73 NE3       30.10R
ORANGE*        CLOUDY    28  18  64 CALM      30.10S
LOUISA*        CLOUDY    29  16  59 NE5       30.14R
BUMPASS*       FAIR      29  18  62 CALM      30.10S
FARMVILLE*     CLOUDY    32  24  71 NE3       30.07S
CREWE*         PTSUNNY   31  20  62 CALM      30.07S
FORT PICKETT*  NOT AVBL
CHASE CITY*    FAIR      32  21  63 NE5       30.05S
CLARKSVILLE*   FAIR      34  23  64 NE6       30.04S
SOUTH HILL*    CLEAR     30  23  74 NE3       30.11S
LAWRENCEVILLE* FAIR      31  20  64 NE3       30.06S
EMPORIA*       CLEAR     30  23  74 N5        30.09S
$$

VAZ088>098-150800-
SOUTHEAST VIRGINIA

CITY           SKY/WX    TMP DP  RH WIND       PRES   REMARKS
NORFOLK        CLEAR     38  25  59 NE15      30.08R
VIRGINIA BEACH PTCLDY    36  25  64 N8        30.07S
NORFOLK NAVAL  PTCLDY    37  20  50 NE14      30.09F
WEST POINT*    CLOUDY   N/A N/A N/A CALM      30.13R
SALUDA*        FAIR      34  23  64 NE3       30.11R
NEWPORT NEWS   PTCLDY    35  22  58 NE9       30.09S
LANGLEY AFB    CLOUDY    35  21  58 NE14      30.08F
FORT EUSTIS    CLOUDY    36  23  59 E6        30.07S
WILLIAMSBURG*  CLOUDY    34  27  75 CALM      30.11R
HR EXEC AP*    FAIR      35  20  54 NE7       30.08F
FRANKLIN*      CLEAR     31  24  75 N3        30.08S
US460-WAKEFLD  CLEAR     30  23  75 CALM      30.09S
$$

VAZ020-022-025-037-045-150800-
WEST CENTRAL AND SOUTHWEST VIRGINIA

CITY           SKY/WX    TMP DP  RH WIND       PRES   REMARKS
STAUNTON*      CLOUDY    26  20  81 CALM      30.05R
WAYNESBORO*    CLOUDY    28  18  68 SE9       30.02R
HOT SPRINGS VA CLOUDY    23  17  77 S3        29.89S
LYNCHBURG      CLOUDY    31  20  63 NE7       30.05S
DANVILLE       CLEAR     31  23  72 NE7       30.03S
SOUTH BOSTON*  FAIR      32  21  64 NE3       30.04F
MARTINSVILLE   CLEAR     24  20  82 CALM      30.04F
ROANOKE        CLOUDY    31  22  69 CALM      30.05R
BLACKSBURG     CLOUDY    29  23  77 E3        30.00S
DUBLIN*        CLOUDY    26  22  88 CALM      29.98S
MARION*        CLEAR     22  19  88 CALM      29.96F
HILLSVILLE*    CLEAR     27  21  80 CALM      29.92F
RICHLANDS*     CLOUDY    27  22  82 CALM      29.93F
WISE*          CLOUDY    30  25  80 CALM      29.94F
ABINGDON*      PTCLDY    28  24  88 CALM      29.95S
$$

MDZ021>025-VAZ099-100-150800-
SOUTHERN MARYLAND AND THE DELMARVA PENINSULA

CITY           SKY/WX    TMP DP  RH WIND       PRES   REMARKS
PATUXENT RIVER CLOUDY    31  17  56 E9        30.12S
BAY BRIDGE APT CLOUDY    28  12  50 MISG      30.13S
LEONARDTOWN    CLOUDY    30  19  64 CALM      30.13S
DOVER          CLOUDY    26  14  62 NW6       30.12S
GEORGETOWN     PTCLDY    29  12  49 N3        30.13R
EASTON         CLOUDY    29  11  46 E7        30.16S
CAMBRIDGE      CLOUDY    28  14  54 CALM      30.13S
SALISBURY      MOCLDY    29  14  53 N6        30.12R
OCEAN CITY     PTCLDY    29  17  61 N6        30.12S
WALLOPS ISLAND PTCLDY    30  17  58 N7        30.12S
ACCOMACK*      CLEAR     30  20  66 N3        30.12R
$$

NCZ012>017-030>032-150800-
NORTH CENTRAL AND EASTERN NORTH CAROLINA

CITY           SKY/WX    TMP DP  RH WIND       PRES   REMARKS
ROANOKE RAPIDS FAIR      32  28  86 CALM      30.06S
RALEIGH        PTCLDY    35  28  75 E8        30.02F
ELIZABETH CITY PTCLDY    38  35  89 N7        30.05R
AHOSKIE*       CLEAR     33  24  70 N5        30.06S
EDENTON*       PTCLDY    37  30  76 NE6       30.04S
CURRITUCK*     PTCLDY    41  34  74 NE7       30.06R
KILL DEVIL HLS PTCLDY    46  36  68 NE8       30.01S
MANTEO         PTCLDY    45  37  74 E12       30.02F
CAPE HATTERAS  CLOUDY    46  41  82 NE6       29.99F
TARBORO*       NOT AVBL
GOLDSBORO      CLOUDY    37  31  81 NE5       30.00S
WASHINGTON     CLOUDY    35  31  84 NE5       30.02F
GREENVILLE     CLEAR     32  30  93 CALM      30.04F
NEW BERN       CLOUDY    36  35  96 CALM      30.03R
WILMINGTON     CLOUDY    38  37  97 NE3       29.99S
$$

VAZ048-150800-
ELSEWHERE

CITY           SKY/WX    TMP DP  RH WIND       PRES   REMARKS
HARRISBURG PA  CLOUDY    20  12  71 N5        30.09S
BALTIMORE      MOCLDY    27  10  49 NE3       30.12R
ANNAPOLIS      CLOUDY    30  15  53 N5        30.13R
ANDREWS AFB    CLOUDY    27  11  49 NE5         N/A
PHILADELPHIA   MOCLDY    24   7  48 N8        30.11F
HENDERSON NC   CLEAR     30  22  71 NE5       30.03F
GREENSBORO     CLEAR     34  22  61 NE7       29.98F
ROCKY MOUNT    CLEAR     33  29  85 NE6       30.04S
$$

VAZ100-150800-
MARINE

STATION/POSITION TIME  TEMP    WIND        PRES    WAVE   SWELL
                       AIR SEA DIR/SP/G            HT/PER HT/PER
                 (UTC) (F)     (DEG/KT/KT) (MB)    (FT/S) (FT/S)
BRANDYWINE LGT   0642           10/ 14/ 16 1020.4R
CAPE MAY NJ      0636      40   40/  3/  6 1019.8R
LEWES DE         0636      42   50/  8/ 11 1019.9R
15NM E FENWICK I 0650   35 52  350/ 10/ 14 1020.1R   3/ 5   2/ 7
OCEAN-CITY-INLET 0636      41  350/  8/ 11 1020.1R
WACHAPREAGUE VA  0642      38  350/  4/  6 1019.4F
THOMAS POINT MD  0700   30 44   20/ 10/ 12   N/A
GOOSES REEF MD   0700   32 44   80/ 10/ 14 1020.5    1/ 3
COVE POINT MD    0642           70/ 13/ 16 1020.4F
SOLOMONS ISLAND  0642      45   50/  9/ 12 1019.6F
BISHOPS HEAD MD  0636      36   50/  7/ 10 1020.1R
PINEY POINT MD   0642           50/  3/  4   N/A
POTOMAC MD       0700   35 46   60/ 10/ 16 1019.5    1
CAMBRIDGE MD     0636      40              1020.7F
LEWISETTA VA     0642      42   80/  8/ 12 1019.6R
RAPPAHANNOCK LGT 0642           40/ 12/ 15 1019.9F
STINGRAY PT      0700   36 45   70/ 12/ 16 1019.8    2/ 3
YORK RVR RNG VA  0642           80/ 15/ 17 1019.6S
YORKTOWN VA      0642      47   70/ 15/ 17 1018.8R
JAMESTOWN VA     0700      44   50/  4/  6   N/A     0
DOMINION TERM VA 0642           40/  6/ 11 1019.1R
KIPTOPEKE VA     0642      44   20/  7/  9   N/A
CAPE HENRY VA    0642           20/ 18/ 20   N/A
WILLOUBY STN VA  0642           40/ 17/ 19 1018.7R
S CRANEY ISL VA  0642           40/ 13/ 15 1018.4S
CAPE HENRY BUOY  0700      52                N/A     4/ 6
1ST LANDING BUOY 0700   38 47   60/ 16/ 19 1018.8    2/ 3
CAPE CHARLES BUO 0651      51                N/A     3/ 5
64NM E OF VA BCH 0650   46 59   60/ 12/ 16 1017.9R   4/ 7   3/ 7
DUCK PIER NC     0642      53   60/ 16/ 19 1016.5S
44100 DUCK FRF   0645      54                N/A     4/ 5
44056 DUCK FRF   0700      55                N/A     4/ 5
OREGON INLET NC  0642      43   40/  9/ 12 1016.2F
HATTERAS NC      0642      53   50/  6/  8 1015.5R
DIAMOND SHLS NC  0700   58 74   50/  6/ 10 1015.7
CAPE LOOKOUT NC  0700           20/  8/  9 1015.9R
$$



USA.gov is the U.S. government's official web portal to all federal, state and local government web resources and services.